Skip Page Navigation
NASA JPL Caltech
NASA Logo - Jet Propulsion Laboratory + View the NASA Portal
+ Center for Near-Earth Object Studies
JPL Home Earth Solar System Stars & Galaxies Technology
JPL Solar System Dynamics
BODIES ORBITS EPHEMERIDES TOOLS PHYSICAL DATA DISCOVERY FAQ SITE MAP
IMPORTANT: The SSD Announcement email list is now available. Major changes are coming in the near future, including possible hostname and/or URL changes. To be notified of such changes, subscribe to this email list.

Please visit this page for more details.


JPL Small-Body Database Browser
Search: [ help ]  
201349 (2002 TY210)
Classification: Main-belt Asteroid          SPK-ID: 2201349
Ephemeris | Orbit Diagram | Orbital Elements | Mission Design | Physical Parameters | Discovery Circumstances | Close-Approach Data ]

[ show orbit diagram ]
Orbital Elements at Epoch 2458600.5 (2019-Apr-27.0) TDB
Reference: JPL 14 (heliocentric ecliptic J2000)
 Element Value Uncertainty (1-sigma)   Units 
e .1972984405191694 5.4139e-08  
a 3.114275788345014 3.0509e-08 au
q 2.499834031957936 1.6716e-07 au
i 17.2247897674869 8.474e-06 deg
node 36.43671153965943 2.1009e-05 deg
peri 53.40534894755812 3.2918e-05 deg
M 320.459783492355 2.1254e-05 deg
tp 2458820.980697029410
(2019-Dec-03.48069703)
0.00011881 TDB
period 2007.400513733684
5.50
2.9499e-05
8.076e-08
d
yr
n .1793364092203078 2.6353e-09 deg/d
Q 3.728717544732092 3.6529e-08 au
  Orbit Determination Parameters
   # obs. used (total)      255  
   data-arc span      10258 days (28.08 yr)  
   first obs. used      1991-11-06  
   last obs. used      2019-12-07  
   planetary ephem.      DE431  
   SB-pert. ephem.      SB431-N16  
   condition code      0  
   norm. resid. RMS      .61334  
   source      ORB  
   producer      Otto Matic  
   solution date      2019-Dec-14 14:35:45  

Additional Information
 Earth MOID = 1.55513 au 
 Jupiter MOID = 1.83658 au 
 T_jup = 3.120 
[ show covariance matrix ]

Ephemeris | Orbit Diagram | Orbital Elements | Mission Design | Physical Parameters | Discovery Circumstances | Close-Approach Data ]

Physical Parameter Table
Parameter Symbol Value Units Sigma Reference Notes
absolute magnitude H 15.3   n/a MPO454426  

201349 (2002 TY210)          Discovered 2002-Oct-07 by LINEAR at Socorro
Reference: 20081212/Numbers.arcLast Updated: 2008-12-12

[ show close-approach data ]
Alternate Designations
 2002 TY210 = 2004 CS105 
Ephemeris | Orbit Diagram | Orbital Elements | Mission Design | Physical Parameters | Discovery Circumstances | Close-Approach Data ]
ABOUT SSD CREDITS/AWARDS PRIVACY/COPYRIGHT GLOSSARY LINKS
FirstGov 2020-Jan-22 21:12 UT
(server date/time)  
NASA Home Page
Site Manager:   Ryan S. Park
Webmaster  Alan B. Chamberlin